Columbia, SC

12:22 PM EDT on September 25, 2016 (GMT -0400)
Columbia Owens Downtown

Weather History for KCUB - October, 2013

Change the Weather History Date:

Friday, October 11, 2013

  Actual Average Record
Temperature  
Mean Temperature 74 °F 67 °F  
Max Temperature 84 °F 78 °F 89 °F (2014)
Min Temperature 64 °F 56 °F 37 °F (2000)
Degree Days  
Heating Degree Days 0 2  
Month to date heating degree days 2 13  
Since 1 July heating degree days 2 16  
Cooling Degree Days 9 4  
Month to date cooling degree days 79 56  
Year to date cooling degree days 2152 2203  
Growing Degree Days 23 (Base 50)    
Moisture  
Dew Point 59 °F    
Average Humidity 61    
Maximum Humidity 87    
Minimum Humidity 40    
Precipitation  
Precipitation 0.00 in 0.11 in 0.28 in (2002)
Month to date precipitation 0.14 1.31  
Year to date precipitation 44.98 37.20  
Sea Level Pressure  
Sea Level Pressure 29.97 in    
Wind  
Wind Speed 3 mph (NW)    
Max Wind Speed 14 mph    
Max Gust Speed 20 mph    
Visibility 10 miles    
Events      
T = Trace of Precipitation, MM = Missing Value Source: NWS Daily Summary

Daily Weather History Graph

Daily Weather History Graph

Search for Another Location

Airport or City:

Trip Planner

Search our weather history database for the weather conditions in past years. The results will help you decide how hot, cold, wet, or windy it might be!

Date:

Astronomy

Oct. 11, 2013 Rise Set
Actual Time 7:26 AM EDT 6:54 PM EDT
Civil Twilight 7:00 AM EDT 7:19 PM EDT
Nautical Twilight 6:31 AM EDT 7:48 PM EDT
Astronomical Twilight 6:03 AM EDT 8:17 PM EDT
Moon 1:58 PM EDT (10/11) No Moon Set
Length of Visible Light 12h 18m
Length of Day
11h 28m
Waxing Crescent, 47% of the Moon is Illuminated
Oct 11
Waxing Crescent
Oct 11
First Quarter
Oct 18
Full
Oct 26
Last Quarter
Nov 3
New

Hourly Weather History & Observations

Time (EDT) Temp. Heat Index Dew Point Humidity Pressure Visibility Wind Dir Wind Speed Gust Speed Precip Events Conditions
12:53 AM 66.9 °F - 60.1 °F 79% 29.98 in 10.0 mi Calm Calm - N/A   Clear
1:53 AM 64.9 °F - 61.0 °F 87% 29.98 in 10.0 mi Calm Calm - N/A   Mostly Cloudy
2:53 AM 68.0 °F - 61.0 °F 78% 29.97 in 10.0 mi Calm Calm - N/A   Overcast
3:53 AM 69.1 °F - 61.0 °F 75% 29.96 in 10.0 mi Calm Calm - N/A   Overcast
4:53 AM 66.9 °F - 62.1 °F 84% 29.97 in 10.0 mi Calm Calm - N/A   Overcast
5:53 AM 66.9 °F - 63.0 °F 87% 29.98 in 10.0 mi Calm Calm - N/A   Overcast
6:53 AM 68.0 °F - 60.1 °F 76% 29.99 in 10.0 mi Calm Calm - N/A   Overcast
7:53 AM 68.0 °F - 61.0 °F 78% 30.00 in 10.0 mi Calm Calm - N/A   Overcast
8:53 AM 70.0 °F - 57.0 °F 63% 30.01 in 10.0 mi NW 4.6 mph - N/A   Overcast
9:53 AM 73.0 °F - 57.0 °F 57% 30.02 in 10.0 mi WNW 5.8 mph - N/A   Scattered Clouds
10:53 AM 77.0 °F - 55.9 °F 48% 30.01 in 10.0 mi Variable 4.6 mph - N/A   Clear
11:53 AM 80.1 °F 80.1 °F 55.0 °F 42% 30.00 in 10.0 mi Variable 4.6 mph - N/A   Clear
12:53 PM 81.0 °F 80.8 °F 55.9 °F 42% 29.98 in 10.0 mi NW 9.2 mph - N/A   Clear
1:53 PM 82.0 °F 81.6 °F 55.9 °F 41% 29.95 in 10.0 mi NW 8.1 mph - N/A   Clear
2:53 PM 82.0 °F 81.4 °F 55.0 °F 39% 29.93 in 10.0 mi WNW 9.2 mph 18.4 mph N/A   Clear
3:53 PM 82.9 °F 82.0 °F 55.0 °F 38% 29.92 in 10.0 mi WNW 5.8 mph - N/A   Clear
4:53 PM 82.9 °F 82.0 °F 55.0 °F 38% 29.92 in 10.0 mi WNW 8.1 mph - N/A   Clear
5:53 PM 82.9 °F 82.1 °F 55.9 °F 39% 29.91 in 10.0 mi NW 6.9 mph - N/A   Partly Cloudy
6:53 PM 79.0 °F - 57.0 °F 47% 29.92 in 10.0 mi Calm Calm - N/A   Clear
7:53 PM 73.0 °F - 60.1 °F 64% 29.94 in 10.0 mi Calm Calm - N/A   Mostly Cloudy
8:53 PM 73.0 °F - 62.1 °F 68% 29.95 in 10.0 mi Calm Calm - N/A   Overcast
9:53 PM 73.9 °F - 61.0 °F 64% 29.97 in 10.0 mi Calm Calm - N/A   Overcast
10:53 PM 73.0 °F - 62.1 °F 68% 29.97 in 10.0 mi Calm Calm - N/A   Overcast
11:53 PM 72.0 °F - 62.1 °F 71% 29.97 in 10.0 mi Calm Calm - N/A   Overcast